This demonstration page uses our WeatherBlox Daily Observations layout. Learn more.

Left ArrowRight Arrow

39.12711, -84.51439

Hourly Observations for September 17, 2016

Temp ( °F °C ) Dew Point ( °F °C ) Humidity (%) Winds ( mph kmh ) Pressure ( in mb ) Visibility ( mi km ) Precip ( " mm )
12:53 am 00:53 Mostly Clear with Mist and Fog 68 20 68 20 100 100 Calm 30.02 1017 2 2 0.00 0.00
1:04 am 01:04 Mostly Cloudy with Mist and Fog 70 21 70 21 100 100 Calm 30.00 1016 3 5 0.00 0.00
1:53 am 01:53 Partly Cloudy with Mist and Fog 69 20.6 69 20.6 100 100 Calm 30.01 1016 6 10 0.00 0.00
2:29 am 02:29 Mostly Clear with Mist and Fog 69 20.6 69 20.6 100 100 Calm 30.00 1016 3 4 0.00 0.00
2:39 am 02:39 Mostly Cloudy with Mist and Fog 68 20 68 20 100 100 Calm 30.00 1016 5 8 0.00 0.00
2:53 am 02:53 Cloudy with Mist and Fog 69 20.6 69 20.6 100 100 Calm 30.01 1016 4 6 0.00 0.00
3:53 am 03:53 Mostly Cloudy 70 21.1 70 21.1 100 100 SSW 6 9 30.00 1016 10 16 0.00 0.00
4:53 am 04:53 Cloudy 71 21.7 69 20.6 94 94 S 6 9 30.00 1016 10 16 0.00 0.00
5:53 am 05:53 Mostly Clear 70 21.1 68 20 93 93 SSW 6 9 29.99 1016 10 16 0.00 0.00
6:53 am 06:53 Clear 72 22.2 68 20 87 87 SSW 9 15 30.00 1016 10 16 0.00 0.00
7:53 am 07:53 Partly Cloudy 73 22.8 68 20 84 84 S 9 15 30.01 1016 10 16 0.00 0.00
8:53 am 08:53 Sunny 75 23.9 69 20.6 82 82 SSW 9 15 30.01 1016 10 16 0.00 0.00
9:53 am 09:53 Mostly Cloudy 76 24.4 68 20 77 77 SSW 20 31 30.01 1016 10 16 0.00 0.00
10:53 am 10:53 Sunny 78 25.6 67 19.4 69 69 SSW 18 30 30.02 1017 10 16 0.00 0.00
11:53 am 11:53 Partly Cloudy 78 25.6 68 20 71 71 SW 17 28 30.02 1017 10 16 0.00 0.00
12:53 pm 12:53 Mostly Cloudy 76 24.4 69 20.6 79 79 SW 15 24 30.03 1017 10 16 0.00 0.03
1:53 pm 13:53 Cloudy 76 24.4 68 20 77 77 SSW 15 24 30.02 1017 10 16 0.00 0.00
2:53 pm 14:53 Mostly Cloudy 78 25.6 70 21.1 76 76 SSW 16 26 30.01 1016 10 16 0.00 0.00
3:53 pm 15:53 Cloudy 76 24.4 69 20.6 79 79 S 17 28 29.99 1016 10 16 0.00 0.00
3:59 pm 15:59 Cloudy 76 24.4 68 20 77 77 SSW 17 28 29.97 1015 10 16 0.00 0.00
4:53 pm 16:53 Mostly Cloudy 76 24.4 69 20.6 79 79 S 16 26 29.99 1016 10 16 0.00 0.00
5:53 pm 17:53 Mostly Cloudy 75 23.9 70 21.1 84 84 S 8 13 29.99 1016 10 16 0.00 0.00
6:53 pm 18:53 Mostly Cloudy 74 23.3 68 20 82 82 S 15 24 29.99 1016 10 16 0.00 0.00
7:53 pm 19:53 Mostly Cloudy 72 22.2 69 20.6 91 91 S 8 13 30.00 1016 10 16 0.00 0.00
8:53 pm 20:53 Cloudy 73 22.8 69 20.6 87 87 SSW 9 15 30.01 1016 10 16 0.00 0.00
9:53 pm 21:53 Cloudy 72 22.2 69 20.6 91 91 SSW 9 15 30.01 1016 10 16 0.00 0.00
10:53 pm 22:53 Cloudy 71 21.7 70 21.1 96 96 SSW 8 13 30.02 1017 10 16 0.00 0.00
11:53 pm 23:53 Cloudy 71 21.7 70 21.1 96 96 SSW 6 9 30.02 1017 10 16 0.00 0.00

Powered by AerisWeather